Regional Weather Roundup
Issued by NWS

Home | Current Version | Previous Version | Graphics & Text | Print | Product List | Glossary On
Versions: 1 2 3 4 5 6 7 8 9 10 11 12 13 14 15 16 17 18 19 20 21 22 23 24 25 26 27 28
000
ASUS45 KSLC 242110
RWRUT

UTAH REGIONAL WEATHER ROUNDUP
NATIONAL WEATHER SERVICE SALT LAKE CITY UT
300 PM MDT TUE MAY 24 2016

UTZ001>011-023>025-242200-

NORTHERN UTAH

CITY           SKY/WX    TMP DP  RH WIND       PRES   REMARKS
BRIGHAM CITY     N/A     64  33  32 S18G28    29.82F
DUGWAY         PTSUNNY   59  45  60 NW12G21   29.86
HILL AFB       PTSUNNY   59  36  43 NW6       29.86R
LOGAN          PTSUNNY   65  39  38 S16       29.81R
OGDEN          CLOUDY    59  38  45 NE12      29.84F
PROVO AIRPORT  MOSUNNY   68  34  28 VRB5      29.82F
SALT LAKE CITY CLOUDY    64  37  36 NW14      29.82R THUNDER
VERNAL         MOSUNNY   67  31  26 W17G31    29.83R
WENDOVER       CLOUDY    61  32  33 SW18      29.85S
HEBER CITY     MOSUNNY   64  30  27 SW12G17   29.84F
WEST JORDAN    MOSUNNY   68  32  26 SW12G26   29.82S

$$

UTZ012>022-026-027-242200-

SOUTHERN/CENTRAL UTAH

CITY           SKY/WX    TMP DP  RH WIND       PRES   REMARKS
BLANDING       MOSUNNY   70  15  12 S22G31    30.01F
BRYCE CANYON   PTSUNNY   50  25  37 S12G20    30.01F
CEDAR CITY     PTSUNNY   63  27  25 S16G23    29.91R
DELTA          CLOUDY    61  30  31 W18G28    29.87R
HANKSVILLE     MOSUNNY   75  21  13 SW22      29.84F
MILFORD        MOSUNNY   72  19  13 SW24G37   29.84S
MOAB/CYNLANDS  MOSUNNY   77  19  11 SW25G32   29.80F
PRICE          CLOUDY    62  23  22 SW18G24   29.89S
ST GEORGE      PTCLDY    79  27  14 SW25G33   29.83S
KANAB          PTSUNNY   70  21  16 S17G23    29.92

$$

REGIONAL REPORTS     COLORADO/ARIZONA

CITY           SKY/WX    TMP DP  RH WIND       PRES   REMARKS
CRAIG, CO      CLOUDY    71  24  17 SW21G35   29.86F
GRAND JUNCTION SUNNY     76  20  12 SW13G22   29.83S
RIFLE          CLOUDY    76  20  12 S20G29    29.84F
MONTROSE       CLOUDY    76  19  11 SW24G38   29.87F
CORTEZ         SUNNY     73  16  11 SW22G32   29.96F
PAGE, AZ       MOSUNNY   76  18  11 SW9G26    29.85F
GRAND CANYON   MOSUNNY   66  20  17 SW23G38   30.01S
KINGMAN        NOT AVBL
FLAGSTAFF      SUNNY     60  24  25 SW22G35   30.06R

$$

REGIONAL REPORTS    NEVADA/IDAHO/WYOMING

CITY           SKY/WX    TMP DP  RH WIND       PRES   REMARKS
LAS VEGAS, NV  MOSUNNY   77  31  18 SW14G25   29.79S
ELY            LGT RAIN  50  32  50 E9G21     29.93R
ELKO           CLOUDY    46  38  73 SW14      29.94R
POCATELLO, ID  MOSUNNY   62  38  40 W9        29.84F
BURLEY         PTSUNNY   62  42  47 SW10      29.84F
EVANSTON, WY   TSTM      46  35  65 SW5       29.93R
ROCK SPRINGS   PTSUNNY   62  29  28 W17G31    29.86R
KEMMERER         N/A     54  32  43 S3        29.93F

$$




USA.gov is the U.S. government's official web portal to all federal, state and local government web resources and services.